This is the latest recevied weather packets stored in our database for station/object W4KAB. If no packets are shown the sender has not sent any weather packets the latest 10 day(s).
| Time | Temp. | Humidity | Pressure | Rain* | Wind** | Luminosity | Snow |
|---|---|---|---|---|---|---|---|
| 1777815232 | 9.44° C | 58% | 1021.5 hPa | 0 mm | - | 33 W/m² | - |
| 1777814928 | 8.89° C | 60% | 1021.6 hPa | 0 mm | - | 27 W/m² | - |
| 1777814624 | 8.89° C | 62% | 1021.8 hPa | 0 mm | - | 21 W/m² | - |
| 1777814322 | 8.89° C | 62% | 1021.6 hPa | 0 mm | - | 21 W/m² | - |
| 1777814018 | 8.89° C | 62% | 1021.7 hPa | 0 mm | - | 20 W/m² | - |
| 1777813716 | 8.89° C | 64% | 1021.9 hPa | 0 mm | - | 20 W/m² | - |
| 1777813413 | 8.33° C | 63% | 1021.8 hPa | 0 mm | - | 20 W/m² | - |
| 1777813110 | 8.33° C | 64% | 1021.7 hPa | 0 mm | - | 19 W/m² | - |
| 1777812808 | 8.33° C | 67% | 1021.9 hPa | 0 mm | - | 19 W/m² | - |
| 1777812504 | 7.78° C | 67% | 1021.8 hPa | 0 mm | - | 21 W/m² | - |
| 1777812202 | 7.22° C | 71% | 1021.6 hPa | 0 mm | - | 18 W/m² | - |
| 1777811900 | 7.22° C | 73% | 1021.8 hPa | 0 mm | - | 18 W/m² | - |
| 1777811599 | 6.67° C | 77% | 1021.5 hPa | 0 mm | - | 28 W/m² | - |
| 1777811294 | 5.56° C | 81% | 1021.5 hPa | 0 mm | - | 17 W/m² | - |
| 1777810991 | 5.56° C | 88% | 1021.6 hPa | 0 mm | - | 16 W/m² | - |
| 1777810688 | 5° C | 87% | 1021.6 hPa | 0 mm | - | 15 W/m² | - |
| 1777810385 | 5° C | 90% | 1021.4 hPa | 0 mm | - | 15 W/m² | - |
| 1777810081 | 4.44° C | 90% | 1021.3 hPa | 0 mm | - | 15 W/m² | - |
| 1777809779 | 3.89° C | 92% | 1021.2 hPa | 0 mm | - | 14 W/m² | - |
| 1777809476 | 3.89° C | 92% | 1021.2 hPa | 0 mm | - | 13 W/m² | - |
| 1777809173 | 3.33° C | 92% | 1021.1 hPa | 0 mm | - | 12 W/m² | - |
| 1777808871 | 3.33° C | 93% | 1020.9 hPa | 0 mm | - | 13 W/m² | - |
| 1777808568 | 2.78° C | 93% | 1021 hPa | 0 mm | - | 12 W/m² | - |
| 1777808264 | 2.78° C | 93% | 1021 hPa | 0 mm | - | 12 W/m² | - |
| 1777807963 | 2.78° C | 94% | 1020.7 hPa | 0 mm | - | 10 W/m² | - |
* Rain latest hour (hover to see other rain measurements)
** Current wind speed in m/s (hover to see current wind gust speed)